Home   Weather   Hohhot   Past weeks

Flag for China Past Weather in Hohhot, Inner Mongolia, China — Yesterday and Last 2 Weeks

Now
25 °F

Clear.


Feels Like: 18 °F
Forecast: 9 / 31 °F
Wind: 6 mph from Northeast

Location: Hohhot Airport

Current Time: Dec 3, 2016 at 7:43:20 pm

Latest Report: Dec 3, 2016 at 7:00 pm


Visibility: 4 mi

Pressure: 30.07 "Hg (26.31 "Hg at 1053m altitude)

Humidity: 59%

Dew Point: 12 °F

Location of HohhotLocation

Past Weather in Hohhot — Graph

°F

Hohhot Temperature Yesterday

Maximum temperature yesterday: 41 °F (at 2:00 pm)
Minimum temperature yesterday: 12 °F (at 3:00 am)
Average temperature yesterday: 25 °F

High & Low Weather Summary for the Past Weeks

 TemperatureHumidityPressure
High43 °F (Nov 18, 7:00 pm)100% (Nov 18, 8:00 pm)30.63 "Hg (Nov 18, 8:00 pm)
Low-2 °F (Nov 23, 5:00 am)20% (Nov 19, 4:00 pm)29.77 "Hg (Nov 18, 6:00 pm)
Average21 °F56%30.28 "Hg
* Reported Nov 18 6:00 pm — Dec 3 6:00 pm, Hohhot, Weather by CustomWeather, © 2016

Note: Actual official high and low records may vary slightly from our data, if they occured in-between our weather recording intervals... More about our weather records

Advertising

Hohhot Weather History for the Previous 24 Hours

Scroll right to see more
 ConditionsComfort  
Time TempWeatherWind HumidityBarometerVisibility
6:00 pm
Sat, Dec 3
27 °FClear.6 mph59%30.07 "Hg3 mi
5:00 pm32 °FClear.1 mph47%30.07 "Hg3 mi
4:00 pm36 °FClear.1 mph38%30.07 "Hg5 mi
3:00 pm36 °FClear.3 mph38%30.07 "Hg4 mi
2:00 pm36 °FClear.3 mph41%30.09 "Hg4 mi
1:00 pm32 °FClear.1 mph51%30.12 "Hg3 mi
12:00 pm30 °FClear.1 mph55%30.12 "Hg4 mi
11:00 am28 °FClear.1 mph59%30.15 "Hg4 mi
10:00 am25 °FClear.3 mph69%30.18 "Hg4 mi
9:00 am21 °FClear.3 mph74%30.18 "Hg3 mi
8:00 am18 °FClear.6 mph73%30.18 "Hg4 mi
7:00 am16 °FClear.3 mph79%30.15 "Hg10 mi
6:00 am16 °FClear.1 mph79%30.15 "Hg10 mi
5:00 am16 °FClear.3 mph79%30.15 "Hg10 mi
4:00 am16 °FClear.3 mph79%30.15 "Hg10 mi
3:00 am19 °FClear.6 mph68%30.18 "Hg10 mi
2:00 am18 °FClear.3 mph73%30.18 "Hg10 mi
1:00 am18 °FClear.3 mph73%30.21 "Hg10 mi
12:00 am19 °FClear.6 mph68%30.21 "Hg10 mi
11:00 pm
Fri, Dec 2
23 °FClear.3 mph63%30.21 "Hg10 mi
10:00 pm25 °FClear.6 mph59%30.24 "Hg10 mi
9:00 pm28 °FPassing clouds.6 mph51%30.24 "HgN/A
8:00 pm27 °FClear.3 mph54%30.24 "Hg10 mi
7:00 pm27 °FClear.8 mph50%30.24 "Hg5 mi
Weather by CustomWeather, © 2016

See weather overviewHow to use our weather pages